This demonstration page uses our WeatherBlox Daily Observations layout. Learn more.

Left ArrowRight Arrow

41.86663, -103.66717

Hourly Observations for November 4, 2016

Temp ( °F °C ) Dew Point ( °F °C ) Humidity (%) Winds ( mph kmh ) Pressure ( in mb ) Visibility ( mi km ) Precip ( " mm )
12:53 am 00:53 Clear 37 2.8 23 -5 57 57 N 6 9 30.40 1029 10 16 N/A
1:53 am 01:53 Clear 34 1.1 23 -5 64 64 NW 6 9 30.40 1029 10 16 N/A
2:53 am 02:53 Clear 33 0.6 22 -5.6 64 64 NNW 7 11 30.40 1030 10 16 N/A
3:53 am 03:53 Clear 34 1.1 22 -5.6 61 61 N 6 9 30.39 1029 10 16 N/A
4:53 am 04:53 Clear 31 -0.6 22 -5.6 69 69 NNW 3 6 30.40 1029 10 16 N/A
5:53 am 05:53 Clear 30 -1.1 22 -5.6 72 72 NW 6 9 30.42 1030 9 14 N/A
6:53 am 06:53 Clear 29 -1.7 22 -5.6 75 75 WNW 5 7 30.43 1031 9 14 N/A
7:53 am 07:53 Sunny 31 -0.6 21 -6.1 67 67 NNW 7 11 30.46 1032 10 16 N/A
8:53 am 08:53 Sunny 38 3.3 24 -4.4 57 57 WNW 3 6 30.47 1032 9 14 N/A
9:53 am 09:53 Sunny 46 7.8 25 -3.9 44 44 NW 5 7 30.44 1031 10 16 N/A
10:53 am 10:53 Sunny 53 11.7 24 -4.4 32 32 VRB 3 6 30.41 1030 10 16 N/A
11:53 am 11:53 Sunny 60 15.6 26 -3.3 27 27 ESE 3 6 30.36 1028 10 16 N/A
12:53 pm 12:53 Sunny 67 19.4 25 -3.9 20 20 ESE 8 13 30.31 1026 10 16 N/A
1:53 pm 13:53 Sunny 73 22.8 26 -3.3 17 17 ESE 10 17 30.25 1025 10 16 N/A
2:53 pm 14:53 Sunny 75 23.9 28 -2.2 18 18 SSE 10 17 30.23 1024 10 16 N/A
3:53 pm 15:53 Sunny 75 23.9 26 -3.3 16 16 S 12 19 30.21 1023 10 16 N/A
4:53 pm 16:53 Sunny 71 21.7 29 -1.7 21 21 SSE 12 19 30.22 1023 10 16 N/A
5:53 pm 17:53 Clear 65 18.3 29 -1.7 26 26 SE 10 17 30.23 1024 10 16 N/A
6:53 pm 18:53 Clear 52 11.1 29 -1.7 41 41 E 8 13 30.28 1025 10 16 N/A
7:53 pm 19:53 Clear 49 9.4 29 -1.7 46 46 ESE 9 15 30.29 1026 10 16 N/A
8:53 pm 20:53 Clear 48 8.9 30 -1.1 50 50 E 8 13 30.27 1025 10 16 N/A
9:53 pm 21:53 Clear 44 6.7 29 -1.7 55 55 E 6 9 30.26 1025 10 16 N/A
10:53 pm 22:53 Clear 44 6.7 29 -1.7 55 55 E 10 17 30.23 1024 10 16 N/A
11:53 pm 23:53 Clear 41 5 29 -1.7 62 62 E 8 13 30.21 1023 10 16 N/A

Powered by AerisWeather